Year,Month,Day,Hour,Minute,Value (Times are PST for temperature in C)
2015,08,14,00,00,21.20
2015,08,14,00,01,21.20
2015,08,14,00,02,21.20
2015,08,14,00,03,21.20
2015,08,14,00,04,21.30
2015,08,14,00,05,21.30
2015,08,14,00,06,21.50
2015,08,14,00,07,21.60
2015,08,14,00,08,21.70
2015,08,14,00,09,21.80
2015,08,14,00,10,21.80
2015,08,14,00,11,21.90
2015,08,14,00,12,22.00
2015,08,14,00,13,22.10
2015,08,14,00,14,22.20
2015,08,14,00,15,22.30
2015,08,14,00,16,22.30
2015,08,14,00,17,22.30
2015,08,14,00,18,22.40
2015,08,14,00,19,22.40
2015,08,14,00,20,22.50
2015,08,14,00,21,22.50
2015,08,14,00,22,22.50
2015,08,14,00,23,22.50
2015,08,14,00,24,22.50
2015,08,14,00,25,22.50
2015,08,14,00,26,22.50
2015,08,14,00,27,22.50
2015,08,14,00,28,22.40
2015,08,14,00,29,22.40
2015,08,14,00,30,22.40
2015,08,14,00,31,22.40
2015,08,14,00,32,22.40
2015,08,14,00,33,22.30
2015,08,14,00,34,22.30
2015,08,14,00,35,22.30
2015,08,14,00,36,22.30
2015,08,14,00,37,22.30
2015,08,14,00,38,22.30
2015,08,14,00,39,22.30
2015,08,14,00,40,22.20
2015,08,14,00,41,22.20
2015,08,14,00,42,22.20
2015,08,14,00,43,22.20
2015,08,14,00,44,22.10
2015,08,14,00,45,22.10
2015,08,14,00,46,22.10
2015,08,14,00,47,22.00
2015,08,14,00,48,21.90
2015,08,14,00,49,21.90
2015,08,14,00,50,21.90
2015,08,14,00,51,21.90
2015,08,14,00,52,21.80
2015,08,14,00,53,21.80
2015,08,14,00,54,21.80
2015,08,14,00,55,21.70
2015,08,14,00,56,21.70
2015,08,14,00,57,21.70
2015,08,14,00,58,21.60
2015,08,14,00,59,21.60
2015,08,14,01,00,21.60
2015,08,14,01,01,21.50
2015,08,14,01,02,21.50
2015,08,14,01,03,21.50
2015,08,14,01,04,21.40
2015,08,14,01,05,21.40
2015,08,14,01,06,21.40
2015,08,14,01,07,21.40
2015,08,14,01,08,21.30
2015,08,14,01,09,21.30
2015,08,14,01,10,21.30
2015,08,14,01,11,21.30
2015,08,14,01,12,21.30
2015,08,14,01,13,21.30
2015,08,14,01,14,21.20
2015,08,14,01,15,21.20
2015,08,14,01,16,21.20
2015,08,14,01,17,21.20
2015,08,14,01,18,21.20
2015,08,14,01,19,21.10
2015,08,14,01,20,21.10
2015,08,14,01,21,21.10
2015,08,14,01,22,21.00
2015,08,14,01,23,21.00
2015,08,14,01,24,21.00
2015,08,14,01,25,20.90
2015,08,14,01,26,20.90
2015,08,14,01,27,20.90
2015,08,14,01,28,20.90
2015,08,14,01,29,20.90
2015,08,14,01,30,20.80
2015,08,14,01,31,20.80
2015,08,14,01,32,20.80
2015,08,14,01,33,20.80
2015,08,14,01,34,20.80
2015,08,14,01,35,20.80
2015,08,14,01,36,20.80
2015,08,14,01,37,20.80
2015,08,14,01,38,20.80
2015,08,14,01,39,20.70
2015,08,14,01,40,20.70
2015,08,14,01,41,20.70
2015,08,14,01,42,20.70
2015,08,14,01,43,20.70
2015,08,14,01,44,20.70
2015,08,14,01,45,20.70
2015,08,14,01,46,20.60
2015,08,14,01,47,20.60
2015,08,14,01,48,20.60
2015,08,14,01,49,20.60
2015,08,14,01,50,20.60
2015,08,14,01,51,20.50
2015,08,14,01,52,20.50
2015,08,14,01,53,20.50
2015,08,14,01,54,20.50
2015,08,14,01,55,20.50
2015,08,14,01,56,20.40
2015,08,14,01,57,20.40
2015,08,14,01,58,20.40
2015,08,14,01,59,20.40
2015,08,14,02,00,20.40
2015,08,14,02,01,20.40
2015,08,14,02,02,20.40
2015,08,14,02,03,20.30
2015,08,14,02,04,20.30
2015,08,14,02,05,20.30
2015,08,14,02,06,20.30
2015,08,14,02,07,20.30
2015,08,14,02,08,20.20
2015,08,14,02,09,20.20
2015,08,14,02,10,20.20
2015,08,14,02,11,20.20
2015,08,14,02,12,20.20
2015,08,14,02,13,20.20
2015,08,14,02,14,20.10
2015,08,14,02,15,20.10
2015,08,14,02,16,20.10
2015,08,14,02,17,20.10
2015,08,14,02,18,20.10
2015,08,14,02,19,20.00
2015,08,14,02,20,20.00
2015,08,14,02,21,20.00
2015,08,14,02,22,20.00
2015,08,14,02,23,19.90
2015,08,14,02,24,19.90
2015,08,14,02,25,19.90
2015,08,14,02,26,19.90
2015,08,14,02,27,19.90
2015,08,14,02,28,19.90
2015,08,14,02,29,19.90
2015,08,14,02,30,19.90
2015,08,14,02,31,19.90
2015,08,14,02,32,19.90
2015,08,14,02,33,19.90
2015,08,14,02,34,19.90
2015,08,14,02,35,19.90
2015,08,14,02,36,19.90
2015,08,14,02,37,19.90
2015,08,14,02,38,19.90
2015,08,14,02,39,19.90
2015,08,14,02,40,19.90
2015,08,14,02,41,19.90
2015,08,14,02,42,19.90
2015,08,14,02,43,19.90
2015,08,14,02,44,19.90
2015,08,14,02,45,19.90
2015,08,14,02,46,19.80
2015,08,14,02,47,19.80
2015,08,14,02,48,19.80
2015,08,14,02,49,19.80
2015,08,14,02,50,19.80
2015,08,14,02,51,19.80
2015,08,14,02,52,19.80
2015,08,14,02,53,19.80
2015,08,14,02,54,19.80
2015,08,14,02,55,19.80
2015,08,14,02,56,19.80
2015,08,14,02,57,19.80
2015,08,14,02,58,19.70
2015,08,14,02,59,19.70
2015,08,14,03,00,19.70
2015,08,14,03,01,19.70
2015,08,14,03,02,19.70
2015,08,14,03,03,19.70
2015,08,14,03,06,19.70
2015,08,14,03,07,19.70
2015,08,14,03,08,19.70
2015,08,14,03,09,19.70
2015,08,14,03,10,19.70
2015,08,14,03,11,19.70
2015,08,14,03,12,19.60
2015,08,14,03,13,19.60
2015,08,14,03,14,19.60
2015,08,14,03,15,19.60
2015,08,14,03,16,19.60
2015,08,14,03,17,19.60
2015,08,14,03,18,19.60
2015,08,14,03,19,19.60
2015,08,14,03,20,19.60
2015,08,14,03,21,19.60
2015,08,14,03,22,19.60
2015,08,14,03,23,19.60
2015,08,14,03,24,19.60
2015,08,14,03,25,19.60
2015,08,14,03,26,19.50
2015,08,14,03,27,19.50
2015,08,14,03,28,19.50
2015,08,14,03,29,19.50
2015,08,14,03,30,19.50
2015,08,14,03,31,19.50
2015,08,14,03,32,19.40
2015,08,14,03,33,19.40
2015,08,14,03,34,19.40
2015,08,14,03,35,19.40
2015,08,14,03,36,19.40
2015,08,14,03,37,19.40
2015,08,14,03,38,19.40
2015,08,14,03,39,19.40
2015,08,14,03,40,19.40
2015,08,14,03,41,19.30
2015,08,14,03,42,19.30
2015,08,14,03,43,19.30
2015,08,14,03,44,19.30
2015,08,14,03,45,19.30
2015,08,14,03,46,19.30
2015,08,14,03,47,19.30
2015,08,14,03,48,19.30
2015,08,14,03,49,19.30
2015,08,14,03,50,19.30
2015,08,14,03,51,19.20
2015,08,14,03,52,19.20
2015,08,14,03,53,19.20
2015,08,14,03,54,19.20
2015,08,14,03,55,19.20
2015,08,14,03,56,19.20
2015,08,14,03,57,19.10
2015,08,14,03,58,19.10
2015,08,14,03,59,19.10
2015,08,14,04,00,19.10
2015,08,14,04,01,19.10
2015,08,14,04,02,19.10
2015,08,14,04,03,19.10
2015,08,14,04,04,19.00
2015,08,14,04,05,19.00
2015,08,14,04,06,19.00
2015,08,14,04,07,19.00
2015,08,14,04,08,18.90
2015,08,14,04,09,18.90
2015,08,14,04,10,18.90
2015,08,14,04,11,18.90
2015,08,14,04,12,18.90
2015,08,14,04,13,18.90
2015,08,14,04,14,18.90
2015,08,14,04,15,18.90
2015,08,14,04,16,18.80
2015,08,14,04,17,18.80
2015,08,14,04,18,18.80
2015,08,14,04,19,18.80
2015,08,14,04,20,18.80
2015,08,14,04,21,18.80
2015,08,14,04,22,18.80
2015,08,14,04,23,18.70
2015,08,14,04,24,18.70
2015,08,14,04,25,18.70
2015,08,14,04,26,18.70
2015,08,14,04,27,18.70
2015,08,14,04,28,18.60
2015,08,14,04,29,18.60
2015,08,14,04,30,18.60
2015,08,14,04,31,18.60
2015,08,14,04,32,18.60
2015,08,14,04,33,18.60
2015,08,14,04,34,18.50
2015,08,14,04,35,18.50
2015,08,14,04,36,18.50
2015,08,14,04,37,18.50
2015,08,14,04,38,18.40
2015,08,14,04,39,18.40
2015,08,14,04,40,18.40
2015,08,14,04,41,18.40
2015,08,14,04,42,18.40
2015,08,14,04,43,18.40
2015,08,14,04,44,18.30
2015,08,14,04,45,18.30
2015,08,14,04,46,18.30
2015,08,14,04,47,18.30
2015,08,14,04,48,18.30
2015,08,14,04,49,18.30
2015,08,14,04,50,18.30
2015,08,14,04,51,18.20
2015,08,14,04,52,18.20
2015,08,14,04,53,18.20
2015,08,14,04,54,18.20
2015,08,14,04,55,18.20
2015,08,14,04,56,18.20
2015,08,14,04,57,18.20
2015,08,14,04,58,18.20
2015,08,14,04,59,18.20
2015,08,14,05,00,18.20
2015,08,14,05,01,18.20
2015,08,14,05,02,18.20
2015,08,14,05,03,18.20
2015,08,14,05,04,18.20
2015,08,14,05,05,18.20
2015,08,14,05,06,18.20
2015,08,14,05,07,18.20
2015,08,14,05,08,18.30
2015,08,14,05,09,18.30
2015,08,14,05,10,18.30
2015,08,14,05,11,18.30
2015,08,14,05,12,18.30
2015,08,14,05,13,18.30
2015,08,14,05,14,18.30
2015,08,14,05,15,18.30
2015,08,14,05,16,18.30
2015,08,14,05,17,18.30
2015,08,14,05,18,18.20
2015,08,14,05,19,18.20
2015,08,14,05,20,18.20
2015,08,14,05,21,18.20
2015,08,14,05,22,18.10
2015,08,14,05,23,18.10
2015,08,14,05,24,18.10
2015,08,14,05,25,18.10
2015,08,14,05,26,18.00
2015,08,14,05,27,18.00
2015,08,14,05,28,18.00
2015,08,14,05,29,18.00
2015,08,14,05,30,17.90
2015,08,14,05,31,17.90
2015,08,14,05,32,17.90
2015,08,14,05,33,17.90
2015,08,14,05,34,17.90
2015,08,14,05,35,17.90
2015,08,14,05,36,17.90
2015,08,14,05,37,17.90
2015,08,14,05,38,17.90
2015,08,14,05,39,17.90
2015,08,14,05,40,17.90
2015,08,14,05,41,17.90
2015,08,14,05,42,17.90
2015,08,14,05,43,17.90
2015,08,14,05,44,17.90
2015,08,14,05,45,17.90
2015,08,14,05,46,18.00
2015,08,14,05,47,18.00
2015,08,14,05,48,18.00
2015,08,14,05,49,18.00
2015,08,14,05,50,18.00
2015,08,14,05,51,18.00
2015,08,14,05,52,17.90
2015,08,14,05,53,17.90
2015,08,14,05,54,17.90
2015,08,14,05,55,17.90
2015,08,14,05,56,17.90
2015,08,14,05,57,17.90
2015,08,14,05,58,17.90
2015,08,14,05,59,17.90
2015,08,14,06,00,17.90
2015,08,14,06,01,17.90
2015,08,14,06,02,17.80
2015,08,14,06,03,17.80
2015,08,14,06,04,17.80
2015,08,14,06,05,17.80
2015,08,14,06,06,17.80
2015,08,14,06,07,17.80
2015,08,14,06,08,17.80
2015,08,14,06,09,17.80
2015,08,14,06,10,17.80
2015,08,14,06,11,17.80
2015,08,14,06,12,17.80
2015,08,14,06,13,17.80
2015,08,14,06,14,17.80
2015,08,14,06,15,17.70
2015,08,14,06,16,17.70
2015,08,14,06,17,17.70
2015,08,14,06,18,17.70
2015,08,14,06,19,17.70
2015,08,14,06,20,17.70
2015,08,14,06,21,17.70
2015,08,14,06,22,17.70
2015,08,14,06,23,17.70
2015,08,14,06,24,17.70
2015,08,14,06,25,17.80
2015,08,14,06,26,17.80
2015,08,14,06,27,17.80
2015,08,14,06,28,17.80
2015,08,14,06,29,17.80
2015,08,14,06,30,17.90
2015,08,14,06,31,17.90
2015,08,14,06,32,17.90
2015,08,14,06,33,17.90
2015,08,14,06,34,17.90
2015,08,14,06,35,18.00
2015,08,14,06,36,18.00
2015,08,14,06,37,18.00
2015,08,14,06,38,18.00
2015,08,14,06,39,18.10
2015,08,14,06,40,18.10
2015,08,14,06,41,18.10
2015,08,14,06,42,18.10
2015,08,14,06,43,18.10
2015,08,14,06,44,18.20
2015,08,14,06,45,18.20
2015,08,14,06,46,18.20
2015,08,14,06,47,18.20
2015,08,14,06,48,18.20
2015,08,14,06,49,18.20
2015,08,14,06,50,18.20
2015,08,14,06,51,18.20
2015,08,14,06,52,18.20
2015,08,14,06,53,18.20
2015,08,14,06,54,18.20
2015,08,14,06,55,18.20
2015,08,14,06,56,18.20
2015,08,14,06,57,18.20
2015,08,14,06,58,18.20
2015,08,14,06,59,18.20
2015,08,14,07,00,18.20
2015,08,14,07,01,18.20
2015,08,14,07,02,18.20
2015,08,14,07,03,18.30
2015,08,14,07,04,18.30
2015,08,14,07,05,18.30
2015,08,14,07,06,18.30
2015,08,14,07,07,18.30
2015,08,14,07,08,18.30
2015,08,14,07,09,18.30
2015,08,14,07,10,18.30
2015,08,14,07,11,18.30
2015,08,14,07,12,18.30
2015,08,14,07,13,18.30
2015,08,14,07,14,18.30
2015,08,14,07,15,18.30
2015,08,14,07,16,18.30
2015,08,14,07,17,18.30
2015,08,14,07,18,18.30
2015,08,14,07,19,18.30
2015,08,14,07,20,18.30
2015,08,14,07,21,18.30
2015,08,14,07,22,18.30
2015,08,14,07,23,18.30
2015,08,14,07,24,18.30
2015,08,14,07,25,18.30
2015,08,14,07,26,18.30
2015,08,14,07,27,18.30
2015,08,14,07,28,18.30
2015,08,14,07,29,18.30
2015,08,14,07,30,18.30
2015,08,14,07,31,18.30
2015,08,14,07,32,18.30
2015,08,14,07,33,18.30
2015,08,14,07,34,18.30
2015,08,14,07,35,18.30
2015,08,14,07,36,18.30
2015,08,14,07,37,18.30
2015,08,14,07,38,18.30
2015,08,14,07,39,18.30
2015,08,14,07,40,18.30
2015,08,14,07,41,18.30
2015,08,14,07,42,18.40
2015,08,14,07,43,18.40
2015,08,14,07,44,18.40
2015,08,14,07,45,18.50
2015,08,14,07,46,18.50
2015,08,14,07,47,18.60
2015,08,14,07,48,18.60
2015,08,14,07,49,18.60
2015,08,14,07,50,18.70
2015,08,14,07,51,18.70
2015,08,14,07,52,18.70
2015,08,14,07,53,18.80
2015,08,14,07,54,18.80
2015,08,14,07,55,18.80
2015,08,14,07,56,18.80
2015,08,14,07,57,18.90
2015,08,14,07,58,18.90
2015,08,14,07,59,18.90
2015,08,14,08,00,19.00
2015,08,14,08,01,19.00
2015,08,14,08,02,19.00
2015,08,14,08,03,19.00
2015,08,14,08,04,19.00
2015,08,14,08,05,19.10
2015,08,14,08,06,19.00
2015,08,14,08,07,19.00
2015,08,14,08,08,19.00
2015,08,14,08,09,19.00
2015,08,14,08,10,19.00
2015,08,14,08,11,19.00
2015,08,14,08,12,19.00
2015,08,14,08,13,19.00
2015,08,14,08,14,19.00
2015,08,14,08,15,19.00
2015,08,14,08,16,19.00
2015,08,14,08,17,19.00
2015,08,14,08,18,19.00
2015,08,14,08,19,19.00
2015,08,14,08,20,19.00
2015,08,14,08,21,19.00
2015,08,14,08,22,19.00
2015,08,14,08,23,19.00
2015,08,14,08,24,19.00
2015,08,14,08,25,19.00
2015,08,14,08,26,19.10
2015,08,14,08,27,19.10
2015,08,14,08,28,19.10
2015,08,14,08,29,19.10
2015,08,14,08,30,19.10
2015,08,14,08,31,19.10
2015,08,14,08,32,19.10
2015,08,14,08,33,19.10
2015,08,14,08,34,19.10
2015,08,14,08,35,19.20
2015,08,14,08,36,19.20
2015,08,14,08,37,19.20
2015,08,14,08,38,19.20
2015,08,14,08,39,19.20
2015,08,14,08,40,19.30
2015,08,14,08,41,19.30
2015,08,14,08,42,19.30
2015,08,14,08,43,19.30
2015,08,14,08,44,19.30
2015,08,14,08,45,19.40
2015,08,14,08,46,19.40
2015,08,14,08,47,19.50
2015,08,14,08,48,19.50
2015,08,14,08,49,19.60
2015,08,14,08,50,19.60
2015,08,14,08,51,19.60
2015,08,14,08,52,19.70
2015,08,14,08,53,19.70
2015,08,14,08,54,19.70
2015,08,14,08,55,19.70
2015,08,14,08,56,19.70
2015,08,14,08,57,19.70
2015,08,14,08,58,19.70
2015,08,14,08,59,19.70
2015,08,14,09,00,19.70
2015,08,14,09,01,19.70
2015,08,14,09,02,19.70
2015,08,14,09,03,19.70
2015,08,14,09,04,19.70
2015,08,14,09,05,19.70
2015,08,14,09,06,19.70
2015,08,14,09,07,19.70
2015,08,14,09,08,19.80
2015,08,14,09,09,19.80
2015,08,14,09,10,19.80
2015,08,14,09,11,19.90
2015,08,14,09,12,19.90
2015,08,14,09,13,20.00
2015,08,14,09,14,20.00
2015,08,14,09,15,20.10
2015,08,14,09,16,20.20
2015,08,14,09,17,20.20
2015,08,14,09,18,20.30
2015,08,14,09,19,20.30
2015,08,14,09,20,20.40
2015,08,14,09,21,20.50
2015,08,14,09,22,20.50
2015,08,14,09,23,20.50
2015,08,14,09,24,20.60
2015,08,14,09,25,20.60
2015,08,14,09,26,20.60
2015,08,14,09,27,20.60
2015,08,14,09,28,20.60
2015,08,14,09,29,20.60
2015,08,14,09,30,20.60
2015,08,14,09,31,20.70
2015,08,14,09,32,20.70
2015,08,14,09,33,20.70
2015,08,14,09,34,20.60
2015,08,14,09,35,20.70
2015,08,14,09,36,20.70
2015,08,14,09,37,20.60
2015,08,14,09,38,20.70
2015,08,14,09,39,20.60
2015,08,14,09,40,20.60
2015,08,14,09,41,20.70
2015,08,14,09,42,20.70
2015,08,14,09,43,20.60
2015,08,14,09,44,20.60
2015,08,14,09,45,20.60
2015,08,14,09,46,20.60
2015,08,14,09,47,20.60
2015,08,14,09,48,20.60
2015,08,14,09,49,20.60
2015,08,14,09,50,20.60
2015,08,14,09,51,20.60
2015,08,14,09,52,20.70
2015,08,14,09,53,20.70
2015,08,14,09,54,20.80
2015,08,14,09,55,20.80
2015,08,14,09,56,20.80
2015,08,14,09,57,20.80
2015,08,14,09,58,20.80
2015,08,14,09,59,20.80
2015,08,14,10,00,20.80
2015,08,14,10,01,20.80
2015,08,14,10,02,20.80
2015,08,14,10,03,20.90
2015,08,14,10,04,20.90
2015,08,14,10,05,20.90
2015,08,14,10,06,20.90
2015,08,14,10,07,20.90
2015,08,14,10,08,21.00
2015,08,14,10,09,21.10
2015,08,14,10,10,21.10
2015,08,14,10,11,21.20
2015,08,14,10,12,21.10
2015,08,14,10,13,21.10
2015,08,14,10,14,21.10
2015,08,14,10,15,21.00
2015,08,14,10,16,20.90
2015,08,14,10,17,20.90
2015,08,14,10,18,20.80
2015,08,14,10,19,20.80
2015,08,14,10,20,20.80
2015,08,14,10,21,20.80
2015,08,14,10,22,20.70
2015,08,14,10,23,20.70
2015,08,14,10,24,20.70
2015,08,14,10,25,20.70
2015,08,14,10,26,20.70
2015,08,14,10,27,20.70
2015,08,14,10,28,20.70
2015,08,14,10,29,20.60
2015,08,14,10,30,20.60
2015,08,14,10,31,20.60
2015,08,14,10,32,20.70
2015,08,14,10,33,20.70
2015,08,14,10,34,20.60
2015,08,14,10,35,20.50
2015,08,14,10,36,20.40
2015,08,14,10,37,20.30
2015,08,14,10,38,20.30
2015,08,14,10,39,20.30
2015,08,14,10,40,20.30
2015,08,14,10,41,20.30
2015,08,14,10,42,20.40
2015,08,14,10,43,20.50
2015,08,14,10,44,20.50
2015,08,14,10,45,20.50
2015,08,14,10,46,20.60
2015,08,14,10,47,20.50
2015,08,14,10,48,20.50
2015,08,14,10,49,20.40
2015,08,14,10,50,20.40
2015,08,14,10,51,20.40
2015,08,14,10,52,20.40
2015,08,14,10,53,20.40
2015,08,14,10,54,20.40
2015,08,14,10,55,20.30
2015,08,14,10,56,20.20
2015,08,14,10,57,20.20
2015,08,14,10,58,20.10
2015,08,14,10,59,20.10
2015,08,14,11,00,20.00
2015,08,14,11,01,20.00
2015,08,14,11,02,20.00
2015,08,14,11,03,20.00
2015,08,14,11,04,20.10
2015,08,14,11,05,20.20
2015,08,14,11,06,20.20
2015,08,14,11,07,20.30
2015,08,14,11,08,20.30
2015,08,14,11,09,20.30
2015,08,14,11,10,20.20
2015,08,14,11,11,20.20
2015,08,14,11,12,20.10
2015,08,14,11,13,20.00
2015,08,14,11,14,19.70
2015,08,14,11,15,19.60
2015,08,14,11,16,19.50
2015,08,14,11,17,19.40
2015,08,14,11,18,19.30
2015,08,14,11,19,19.20
2015,08,14,11,20,19.20
2015,08,14,11,21,19.20
2015,08,14,11,22,19.20
2015,08,14,11,23,19.30
2015,08,14,11,24,19.40
2015,08,14,11,25,19.50
2015,08,14,11,26,19.60
2015,08,14,11,27,19.80
2015,08,14,11,28,19.80
2015,08,14,11,29,19.90
2015,08,14,11,30,20.00
2015,08,14,11,31,20.10
2015,08,14,11,32,20.20
2015,08,14,11,33,20.30
2015,08,14,11,34,20.30
2015,08,14,11,35,20.40
2015,08,14,11,36,20.50
2015,08,14,11,37,20.50
2015,08,14,11,38,20.60
2015,08,14,11,39,20.70
2015,08,14,11,40,20.70
2015,08,14,11,41,20.70
2015,08,14,11,42,20.70
2015,08,14,11,43,20.60
2015,08,14,11,44,20.50
2015,08,14,11,45,20.50
2015,08,14,11,46,20.40
2015,08,14,11,47,20.40
2015,08,14,11,48,20.30
2015,08,14,11,49,20.30
2015,08,14,11,50,20.30
2015,08,14,11,51,20.20
2015,08,14,11,52,20.20
2015,08,14,11,53,20.20
2015,08,14,11,54,20.20
2015,08,14,11,55,20.20
2015,08,14,11,56,20.20
2015,08,14,11,57,20.20
2015,08,14,11,58,20.20
2015,08,14,11,59,20.30
2015,08,14,12,00,20.30
2015,08,14,12,01,20.30
2015,08,14,12,02,20.30
2015,08,14,12,03,20.30
2015,08,14,12,04,20.30
2015,08,14,12,05,20.40
2015,08,14,12,06,20.40
2015,08,14,12,07,20.30
2015,08,14,12,08,20.30
2015,08,14,12,09,20.30
2015,08,14,12,10,20.20
2015,08,14,12,11,20.20
2015,08,14,12,12,20.30
2015,08,14,12,13,20.30
2015,08,14,12,14,20.30
2015,08,14,12,15,20.30
2015,08,14,12,16,20.20
2015,08,14,12,17,20.20
2015,08,14,12,18,20.20
2015,08,14,12,19,20.20
2015,08,14,12,20,20.20
2015,08,14,12,21,20.20
2015,08,14,12,22,20.20
2015,08,14,12,23,20.20
2015,08,14,12,24,20.20
2015,08,14,12,25,20.20
2015,08,14,12,26,20.20
2015,08,14,12,27,20.20
2015,08,14,12,28,20.20
2015,08,14,12,29,20.30
2015,08,14,12,30,20.30
2015,08,14,12,31,20.20
2015,08,14,12,32,20.20
2015,08,14,12,33,20.20
2015,08,14,12,34,20.20
2015,08,14,12,35,20.10
2015,08,14,12,36,20.10
2015,08,14,12,37,20.10
2015,08,14,12,38,20.10
2015,08,14,12,39,20.10
2015,08,14,12,40,20.00
2015,08,14,12,41,20.00
2015,08,14,12,42,19.90
2015,08,14,12,43,19.90
2015,08,14,12,44,19.90
2015,08,14,12,45,19.90
2015,08,14,12,46,20.00
2015,08,14,12,47,20.00
2015,08,14,12,48,19.90
2015,08,14,12,49,20.00
2015,08,14,12,50,20.00
2015,08,14,12,51,20.00
2015,08,14,12,52,20.10
2015,08,14,12,53,20.10
2015,08,14,12,54,20.10
2015,08,14,12,55,20.20
2015,08,14,12,56,20.20
2015,08,14,12,57,20.20
2015,08,14,12,58,20.20
2015,08,14,12,59,20.20
2015,08,14,13,00,20.20
2015,08,14,13,01,20.20
2015,08,14,13,02,20.30
2015,08,14,13,03,20.30
2015,08,14,13,04,20.30
2015,08,14,13,05,20.30
2015,08,14,13,06,20.30
2015,08,14,13,07,20.30
2015,08,14,13,08,20.30
2015,08,14,13,09,20.20
2015,08,14,13,10,20.20
2015,08,14,13,11,20.20
2015,08,14,13,12,20.30
2015,08,14,13,13,20.30
2015,08,14,13,14,20.30
2015,08,14,13,15,20.30
2015,08,14,13,16,20.40
2015,08,14,13,17,20.40
2015,08,14,13,18,20.40
2015,08,14,13,19,20.40
2015,08,14,13,20,20.50
2015,08,14,13,21,20.50
2015,08,14,13,22,20.60
2015,08,14,13,23,20.60
2015,08,14,13,24,20.70
2015,08,14,13,25,20.70
2015,08,14,13,26,20.80
2015,08,14,13,27,20.80
2015,08,14,13,28,20.80
2015,08,14,13,29,20.90
2015,08,14,13,30,20.90
2015,08,14,13,31,20.80
2015,08,14,13,32,20.80
2015,08,14,13,33,20.80
2015,08,14,13,34,20.70
2015,08,14,13,35,20.70
2015,08,14,13,36,20.70
2015,08,14,13,37,20.70
2015,08,14,13,38,20.70
2015,08,14,13,39,20.70
2015,08,14,13,40,20.70
2015,08,14,13,41,20.70
2015,08,14,13,42,20.70
2015,08,14,13,43,20.70
2015,08,14,13,44,20.70
2015,08,14,13,45,20.70
2015,08,14,13,46,20.70
2015,08,14,13,47,20.60
2015,08,14,13,48,20.60
2015,08,14,13,49,20.70
2015,08,14,13,50,20.70
2015,08,14,13,51,20.70
2015,08,14,13,52,20.80
2015,08,14,13,53,20.80
2015,08,14,13,54,20.80
2015,08,14,13,55,20.80
2015,08,14,13,56,20.90
2015,08,14,13,57,20.90
2015,08,14,13,58,20.90
2015,08,14,13,59,21.00
2015,08,14,14,00,21.00
2015,08,14,14,01,21.10
2015,08,14,14,02,21.10
2015,08,14,14,03,21.10
2015,08,14,14,04,21.20
2015,08,14,14,05,21.20
2015,08,14,14,06,21.20
2015,08,14,14,07,21.30
2015,08,14,14,08,21.30
2015,08,14,14,09,21.30
2015,08,14,14,10,21.10
2015,08,14,14,11,20.90
2015,08,14,14,12,20.80
2015,08,14,14,13,20.70
2015,08,14,14,14,20.50
2015,08,14,14,15,20.40
2015,08,14,14,16,20.30
2015,08,14,14,17,20.30
2015,08,14,14,18,20.30
2015,08,14,14,19,20.30
2015,08,14,14,20,20.30
2015,08,14,14,21,20.20
2015,08,14,14,22,20.20
2015,08,14,14,23,20.10
2015,08,14,14,24,19.90
2015,08,14,14,25,19.90
2015,08,14,14,26,19.90
2015,08,14,14,27,19.90
2015,08,14,14,28,20.00
2015,08,14,14,29,20.00
2015,08,14,14,30,20.10
2015,08,14,14,31,20.10
2015,08,14,14,32,20.20
2015,08,14,14,33,20.20
2015,08,14,14,34,20.20
2015,08,14,14,35,20.20
2015,08,14,14,36,20.20
2015,08,14,14,37,20.30
2015,08,14,14,38,20.30
2015,08,14,14,39,20.30
2015,08,14,14,40,20.30
2015,08,14,14,41,20.30
2015,08,14,14,42,20.40
2015,08,14,14,43,20.40
2015,08,14,14,44,20.40
2015,08,14,14,45,20.50
2015,08,14,14,46,20.50
2015,08,14,14,47,20.50
2015,08,14,14,48,20.50
2015,08,14,14,49,20.60
2015,08,14,14,50,20.60
2015,08,14,14,51,20.60
2015,08,14,14,52,20.60
2015,08,14,14,53,20.60
2015,08,14,14,54,20.60
2015,08,14,14,55,20.70
2015,08,14,14,56,20.70
2015,08,14,14,57,20.70
2015,08,14,14,58,20.70
2015,08,14,14,59,20.70
2015,08,14,15,00,20.80
2015,08,14,15,01,20.80
2015,08,14,15,02,20.90
2015,08,14,15,03,20.90
2015,08,14,15,04,20.90
2015,08,14,15,05,20.90
2015,08,14,15,06,20.90
2015,08,14,15,07,20.90
2015,08,14,15,08,20.90
2015,08,14,15,09,20.90
2015,08,14,15,10,21.00
2015,08,14,15,11,21.00
2015,08,14,15,12,21.00
2015,08,14,15,13,21.00
2015,08,14,15,14,21.00
2015,08,14,15,15,21.00
2015,08,14,15,16,21.00
2015,08,14,15,17,21.00
2015,08,14,15,18,21.00
2015,08,14,15,19,21.00
2015,08,14,15,20,20.90
2015,08,14,15,21,20.80
2015,08,14,15,22,20.70
2015,08,14,15,23,20.60
2015,08,14,15,24,20.50
2015,08,14,15,25,20.50
2015,08,14,15,26,20.40
2015,08,14,15,27,20.40
2015,08,14,15,28,20.40
2015,08,14,15,29,20.40
2015,08,14,15,30,20.40
2015,08,14,15,31,20.40
2015,08,14,15,32,20.40
2015,08,14,15,33,20.40
2015,08,14,15,34,20.40
2015,08,14,15,35,20.40
2015,08,14,15,36,20.40
2015,08,14,15,37,20.40
2015,08,14,15,38,20.30
2015,08,14,15,39,20.30
2015,08,14,15,40,20.10
2015,08,14,15,41,20.00
2015,08,14,15,42,19.90
2015,08,14,15,43,19.90
2015,08,14,15,44,19.90
2015,08,14,15,45,20.00
2015,08,14,15,46,20.10
2015,08,14,15,47,20.10
2015,08,14,15,48,20.10
2015,08,14,15,49,20.10
2015,08,14,15,50,20.10
2015,08,14,15,51,20.00
2015,08,14,15,52,20.00
2015,08,14,15,53,20.00
2015,08,14,15,54,20.00
2015,08,14,15,55,20.00
2015,08,14,15,56,20.00
2015,08,14,15,57,20.10
2015,08,14,15,58,20.10
2015,08,14,15,59,20.20
2015,08,14,16,00,20.20
2015,08,14,16,01,20.20
2015,08,14,16,02,20.20
2015,08,14,16,03,20.20
2015,08,14,16,04,20.20
2015,08,14,16,05,20.20
2015,08,14,16,06,20.10
2015,08,14,16,07,20.10
2015,08,14,16,08,20.10
2015,08,14,16,09,20.00
2015,08,14,16,10,20.00
2015,08,14,16,11,20.00
2015,08,14,16,12,20.00
2015,08,14,16,13,20.10
2015,08,14,16,14,20.10
2015,08,14,16,15,20.10
2015,08,14,16,16,20.10
2015,08,14,16,17,20.10
2015,08,14,16,18,20.10
2015,08,14,16,19,20.00
2015,08,14,16,20,19.90
2015,08,14,16,21,19.80
2015,08,14,16,22,19.70
2015,08,14,16,23,19.70
2015,08,14,16,24,19.60
2015,08,14,16,25,19.50
2015,08,14,16,26,19.50
2015,08,14,16,27,19.50
2015,08,14,16,28,19.50
2015,08,14,16,29,19.50
2015,08,14,16,30,19.60
2015,08,14,16,31,19.60
2015,08,14,16,32,19.60
2015,08,14,16,33,19.60
2015,08,14,16,34,19.60
2015,08,14,16,35,19.60
2015,08,14,16,36,19.60
2015,08,14,16,37,19.60
2015,08,14,16,38,19.60
2015,08,14,16,39,19.60
2015,08,14,16,40,19.60
2015,08,14,16,41,19.60
2015,08,14,16,42,19.60
2015,08,14,16,43,19.60
2015,08,14,16,44,19.60
2015,08,14,16,45,19.60
2015,08,14,16,46,19.60
2015,08,14,16,47,19.60
2015,08,14,16,48,19.60
2015,08,14,16,49,19.60
2015,08,14,16,50,19.60
2015,08,14,16,51,19.60
2015,08,14,16,52,19.50
2015,08,14,16,53,19.50
2015,08,14,16,54,19.40
2015,08,14,16,55,19.40
2015,08,14,16,56,19.40
2015,08,14,16,57,19.30
2015,08,14,16,58,19.20
2015,08,14,16,59,19.20
2015,08,14,17,00,19.20
2015,08,14,17,01,19.20
2015,08,14,17,02,19.30
2015,08,14,17,03,19.30
2015,08,14,17,04,19.30
2015,08,14,17,05,19.40
2015,08,14,17,06,19.40
2015,08,14,17,07,19.50
2015,08,14,17,08,19.50
2015,08,14,17,09,19.50
2015,08,14,17,10,19.50
2015,08,14,17,11,19.50
2015,08,14,17,12,19.50
2015,08,14,17,13,19.50
2015,08,14,17,14,19.50
2015,08,14,17,15,19.40
2015,08,14,17,16,19.40
2015,08,14,17,17,19.50
2015,08,14,17,18,19.50
2015,08,14,17,19,19.50
2015,08,14,17,20,19.50
2015,08,14,17,21,19.50